TimeEDT,TemperatureF,Dew PointF,Humidity,Sea Level PressureIn,VisibilityMPH,Wind Direction,Wind SpeedMPH,Gust SpeedMPH,PrecipitationIn,Events,Conditions,WindDirDegrees,DateUTC
12:53 AM,46.9,39.9,77,29.94,7.0,NE,4.6,-,N/A,,Partly Cloudy,40,2013-03-17 04:53:00
1:53 AM,46.0,39.0,76,29.95,7.0,North,4.6,-,N/A,,Overcast,10,2013-03-17 05:53:00
2:32 AM,46.4,39.2,76,29.96,7.0,Calm,Calm,-,N/A,,Overcast,0,2013-03-17 06:32:00
2:53 AM,45.0,39.0,80,29.95,7.0,Variable,4.6,-,N/A,,Overcast,0,2013-03-17 06:53:00
3:02 AM,44.6,37.4,76,29.96,7.0,NE,3.5,-,N/A,,Overcast,40,2013-03-17 07:02:00
3:53 AM,44.1,37.0,76,29.94,7.0,Calm,Calm,-,N/A,,Overcast,0,2013-03-17 07:53:00
4:53 AM,43.0,37.9,82,29.92,7.0,Calm,Calm,-,N/A,,Overcast,0,2013-03-17 08:53:00
5:53 AM,42.1,37.0,82,29.96,8.0,Calm,Calm,-,N/A,,Overcast,0,2013-03-17 09:53:00
6:07 AM,42.8,37.4,81,29.99,8.0,NNE,3.5,-,N/A,,Overcast,20,2013-03-17 10:07:00
6:40 AM,41.0,35.6,81,29.99,8.0,Variable,3.5,-,0.00,Rain,Light Rain,0,2013-03-17 10:40:00
6:53 AM,41.0,36.0,82,29.99,9.0,NE,3.5,-,0.00,Rain,Light Rain,40,2013-03-17 10:53:00
7:53 AM,39.0,35.1,86,30.03,6.0,Variable,4.6,-,0.01,Rain,Light Rain,0,2013-03-17 11:53:00
8:10 AM,39.2,35.6,87,30.04,6.0,Variable,5.8,-,0.00,Rain,Light Rain,0,2013-03-17 12:10:00
8:34 AM,39.2,35.6,87,30.05,8.0,Variable,3.5,-,0.00,,Overcast,0,2013-03-17 12:34:00
8:53 AM,37.9,36.0,93,30.06,7.0,Variable,5.8,-,0.00,,Overcast,0,2013-03-17 12:53:00
9:53 AM,37.0,34.0,89,30.07,10.0,NE,4.6,-,N/A,,Overcast,50,2013-03-17 13:53:00
10:53 AM,37.9,34.0,86,30.08,10.0,Variable,4.6,-,N/A,,Overcast,0,2013-03-17 14:53:00
11:53 AM,37.9,34.0,86,30.06,10.0,Calm,Calm,-,N/A,,Overcast,0,2013-03-17 15:53:00
12:53 PM,39.0,34.0,82,30.07,10.0,Variable,3.5,-,N/A,,Overcast,0,2013-03-17 16:53:00
1:53 PM,39.0,34.0,82,30.04,10.0,Variable,5.8,-,N/A,,Overcast,0,2013-03-17 17:53:00
2:53 PM,39.0,34.0,82,30.03,10.0,Variable,3.5,-,N/A,,Overcast,0,2013-03-17 18:53:00
3:53 PM,37.9,34.0,86,30.00,10.0,NE,5.8,-,N/A,,Overcast,40,2013-03-17 19:53:00
4:53 PM,37.0,33.1,86,30.03,10.0,Variable,4.6,-,N/A,,Overcast,0,2013-03-17 20:53:00
5:33 PM,35.6,33.8,93,30.01,7.0,NNE,8.1,-,0.00,Rain,Light Rain,30,2013-03-17 21:33:00
5:53 PM,35.1,33.1,92,30.02,8.0,NE,5.8,-,0.00,,Overcast,40,2013-03-17 21:53:00
6:53 PM,35.1,33.1,92,30.01,4.0,ENE,8.1,-,0.01,Rain,Light Rain,60,2013-03-17 22:53:00
7:49 PM,35.6,33.8,93,29.98,2.0,ENE,5.8,-,0.01,Rain,Light Rain,60,2013-03-17 23:49:00
7:53 PM,36.0,34.0,93,30.01,4.0,Variable,5.8,-,0.01,Rain,Light Rain,0,2013-03-17 23:53:00
8:53 PM,36.0,34.0,93,29.99,9.0,Variable,4.6,-,0.00,,Overcast,0,2013-03-18 00:53:00
9:53 PM,37.0,35.1,93,29.97,6.0,NE,5.8,-,0.00,Rain,Light Rain,50,2013-03-18 01:53:00
10:53 PM,37.0,35.1,93,29.96,5.0,Variable,4.6,-,0.02,Rain,Light Rain,0,2013-03-18 02:53:00
11:53 PM,36.0,35.1,97,29.96,5.0,NE,5.8,-,0.00,,Overcast,50,2013-03-18 03:53:00